Time,TemperatureF,DewpointF,PressureIn,WindDirection,WindDirectionDegrees,WindSpeedMPH,WindSpeedGustMPH,Humidity,HourlyPrecipIn,Conditions,Clouds,dailyrainin,SoftwareType,DateUTC
2013-01-10 00:00:00,31.2,22.9,30.39,SSW,199,2.0,8.0,71,0.00,,FEW250,0.00,VWS V14.01,2013-01-10 06:00:00,
2013-01-10 00:05:00,31.2,22.9,30.39,SSW,196,1.0,4.0,71,0.00,,FEW220,0.00,VWS V14.01,2013-01-10 06:05:00,
2013-01-10 00:10:00,31.0,22.7,30.40,SSW,197,3.0,4.0,71,0.00,,FEW220,0.00,VWS V14.01,2013-01-10 06:10:00,
2013-01-10 00:15:00,30.8,22.9,30.41,SSW,212,7.0,8.0,72,0.00,,FEW220,0.00,VWS V14.01,2013-01-10 06:15:00,
2013-01-10 00:20:00,30.7,22.8,30.41,WSW,243,2.0,9.0,72,0.00,,FEW220,0.00,VWS V14.01,2013-01-10 06:20:00,
2013-01-10 00:25:00,30.6,22.7,30.41,WSW,252,1.0,8.0,72,0.00,,FEW220,0.00,VWS V14.01,2013-01-10 06:25:00,
2013-01-10 00:30:00,30.5,22.9,30.41,North,360,3.0,4.0,73,0.00,,FEW220,0.00,VWS V14.01,2013-01-10 06:30:00,
2013-01-10 00:35:00,30.5,22.9,30.42,SSW,198,4.0,5.0,73,0.00,,FEW220,0.00,VWS V14.01,2013-01-10 06:35:00,
2013-01-10 00:40:00,30.2,22.6,30.43,SSW,194,4.0,7.0,73,0.00,,FEW220,0.00,VWS V14.01,2013-01-10 06:40:00,
2013-01-10 00:45:00,29.9,22.6,30.43,South,186,6.0,8.0,74,0.00,,FEW220,0.00,VWS V14.01,2013-01-10 06:45:00,
2013-01-10 00:50:00,29.9,22.6,30.43,SSW,213,6.0,9.0,74,0.00,,FEW220,0.00,VWS V14.01,2013-01-10 06:50:00,
2013-01-10 00:55:00,29.9,22.6,30.43,South,188,3.0,7.0,74,0.00,,FEW120,0.00,VWS V14.01,2013-01-10 06:55:00,
2013-01-10 00:56:00,29.9,22.6,30.44,South,180,4.0,6.0,74,0.00,,FEW220,0.00,VWS V14.01,2013-01-10 06:56:00,
2013-01-10 01:00:00,29.9,22.6,30.44,SSW,196,6.0,7.0,74,0.00,,FEW120,0.00,VWS V14.01,2013-01-10 07:00:00,
2013-01-10 01:01:00,29.9,22.6,30.44,SSW,205,3.0,7.0,74,0.00,,FEW220,0.00,VWS V14.01,2013-01-10 07:01:00,
2013-01-10 01:05:00,29.9,22.6,30.44,SW,218,4.0,6.0,74,0.00,,FEW120,0.00,VWS V14.01,2013-01-10 07:05:00,
2013-01-10 01:06:00,29.9,22.6,30.44,SW,226,3.0,6.0,74,0.00,,FEW220,0.00,VWS V14.01,2013-01-10 07:06:00,
2013-01-10 01:10:00,29.8,22.5,30.44,SW,227,5.0,8.0,74,0.00,,FEW120,0.00,VWS V14.01,2013-01-10 07:10:00,
2013-01-10 01:11:00,29.8,22.5,30.44,SW,236,2.0,8.0,74,0.00,,FEW220,0.00,VWS V14.01,2013-01-10 07:11:00,
2013-01-10 01:15:00,29.9,22.6,30.44,WSW,240,2.0,7.0,74,0.00,,FEW120,0.00,VWS V14.01,2013-01-10 07:15:00,
2013-01-10 01:16:00,29.9,22.6,30.44,SW,234,4.0,7.0,74,0.00,,FEW220,0.00,VWS V14.01,2013-01-10 07:16:00,
2013-01-10 01:20:00,29.8,22.5,30.44,SSW,198,2.0,6.0,74,0.00,,FEW120,0.00,VWS V14.01,2013-01-10 07:20:00,
2013-01-10 01:21:00,29.8,22.5,30.44,WSW,249,1.0,7.0,74,0.00,,FEW220,0.00,VWS V14.01,2013-01-10 07:21:00,
2013-01-10 01:25:00,29.8,22.5,30.44,SW,229,4.0,7.0,74,0.00,,FEW120,0.00,VWS V14.01,2013-01-10 07:25:00,
2013-01-10 01:26:00,29.7,22.4,30.44,WSW,242,1.0,5.0,74,0.00,,FEW220,0.00,VWS V14.01,2013-01-10 07:26:00,
2013-01-10 01:30:00,29.7,22.4,30.44,WSW,241,1.0,5.0,74,0.00,,FEW120,0.00,VWS V14.01,2013-01-10 07:30:00,
2013-01-10 01:31:00,29.7,22.8,30.44,WSW,241,3.0,5.0,75,0.00,,FEW220,0.00,VWS V14.01,2013-01-10 07:31:00,
2013-01-10 01:35:00,29.7,22.8,30.44,WSW,241,2.0,4.0,75,0.00,,FEW120,0.00,VWS V14.01,2013-01-10 07:35:00,
2013-01-10 01:36:00,29.7,22.8,30.44,WSW,241,2.0,4.0,75,0.00,,FEW220,0.00,VWS V14.01,2013-01-10 07:36:00,
2013-01-10 01:40:00,29.7,22.8,30.44,WSW,241,2.0,4.0,75,0.00,,FEW120,0.00,VWS V14.01,2013-01-10 07:40:00,
2013-01-10 01:41:00,29.7,22.4,30.44,WSW,241,1.0,4.0,74,0.00,,FEW220,0.00,VWS V14.01,2013-01-10 07:41:00,
2013-01-10 01:45:00,29.7,22.4,30.44,WSW,241,1.0,5.0,74,0.00,,FEW120,0.00,VWS V14.01,2013-01-10 07:45:00,
2013-01-10 01:46:00,29.6,22.4,30.44,West,267,3.0,5.0,74,0.00,,FEW220,0.00,VWS V14.01,2013-01-10 07:46:00,
2013-01-10 01:50:00,29.4,22.5,30.44,West,267,0.0,4.0,75,0.00,,FEW120,0.00,VWS V14.01,2013-01-10 07:50:00,
2013-01-10 01:51:00,29.3,22.4,30.44,West,266,2.0,4.0,75,0.00,,FEW220,0.00,VWS V14.01,2013-01-10 07:51:00,
2013-01-10 01:55:00,29.3,22.4,30.44,West,266,0.0,2.0,75,0.00,,FEW120,0.00,VWS V14.01,2013-01-10 07:55:00,
2013-01-10 01:56:00,29.3,22.4,30.44,West,266,0.0,0.0,75,0.00,,FEW220,0.00,VWS V14.01,2013-01-10 07:56:00,
2013-01-10 02:00:00,29.3,22.4,30.44,West,266,0.0,0.0,75,0.00,,FEW120,0.00,VWS V14.01,2013-01-10 08:00:00,
2013-01-10 02:01:00,29.3,22.4,30.44,West,266,1.0,1.0,75,0.00,,FEW250,0.00,VWS V14.01,2013-01-10 08:01:00,
2013-01-10 02:05:00,29.3,22.4,30.45,West,265,2.0,2.0,75,0.00,,FEW120,0.00,VWS V14.01,2013-01-10 08:05:00,
2013-01-10 02:06:00,29.4,22.5,30.45,West,265,0.0,2.0,75,0.00,,FEW250,0.00,VWS V14.01,2013-01-10 08:06:00,
2013-01-10 02:10:00,29.4,22.5,30.45,West,265,0.0,2.0,75,0.00,,FEW120,0.00,VWS V14.01,2013-01-10 08:10:00,
2013-01-10 02:11:00,29.4,22.5,30.45,West,265,0.0,0.0,75,0.00,,FEW250,0.00,VWS V14.01,2013-01-10 08:11:00,
2013-01-10 02:15:00,29.4,22.5,30.44,West,265,0.0,0.0,75,0.00,,FEW120,0.00,VWS V14.01,2013-01-10 08:15:00,
2013-01-10 02:16:00,29.3,22.4,30.45,West,265,0.0,0.0,75,0.00,,FEW250,0.00,VWS V14.01,2013-01-10 08:16:00,
2013-01-10 02:20:00,29.3,22.4,30.45,West,265,0.0,0.0,75,0.00,,FEW120,0.00,VWS V14.01,2013-01-10 08:20:00,
2013-01-10 02:21:00,29.3,22.7,30.45,West,265,0.0,0.0,76,0.00,,FEW250,0.00,VWS V14.01,2013-01-10 08:21:00,
2013-01-10 02:25:00,29.2,22.6,30.45,West,265,0.0,0.0,76,0.00,,FEW120,0.00,VWS V14.01,2013-01-10 08:25:00,
2013-01-10 02:27:00,29.2,22.6,30.45,West,265,0.0,0.0,76,0.00,,FEW250,0.00,VWS V14.01,2013-01-10 08:27:00,
2013-01-10 02:30:00,29.3,22.7,30.45,West,265,0.0,0.0,76,0.00,,FEW120,0.00,VWS V14.01,2013-01-10 08:30:00,
2013-01-10 02:32:00,29.3,22.7,30.46,West,266,0.0,0.0,76,0.00,,FEW250,0.00,VWS V14.01,2013-01-10 08:32:00,
2013-01-10 02:35:00,29.2,22.3,30.46,West,265,0.0,0.0,75,0.00,,FEW120,0.00,VWS V14.01,2013-01-10 08:35:00,
2013-01-10 02:37:00,29.2,22.6,30.45,West,265,0.0,0.0,76,0.00,,FEW250,0.00,VWS V14.01,2013-01-10 08:37:00,
2013-01-10 02:40:00,29.2,22.6,30.45,West,265,0.0,0.0,76,0.00,,FEW120,0.00,VWS V14.01,2013-01-10 08:40:00,
2013-01-10 02:42:00,29.2,22.6,30.46,West,265,0.0,0.0,76,0.00,,FEW250,0.00,VWS V14.01,2013-01-10 08:42:00,
2013-01-10 02:45:00,29.2,22.6,30.46,West,265,0.0,0.0,76,0.00,,FEW120,0.00,VWS V14.01,2013-01-10 08:45:00,
2013-01-10 02:47:00,29.0,22.4,30.45,West,265,0.0,0.0,76,0.00,,FEW250,0.00,VWS V14.01,2013-01-10 08:47:00,
2013-01-10 02:50:00,29.0,22.7,30.45,West,265,0.0,0.0,77,0.00,,FEW120,0.00,VWS V14.01,2013-01-10 08:50:00,
2013-01-10 02:52:00,29.1,22.8,30.45,West,265,0.0,0.0,77,0.00,,FEW250,0.00,VWS V14.01,2013-01-10 08:52:00,
2013-01-10 02:55:00,29.2,22.9,30.45,West,265,0.0,0.0,77,0.00,,FEW120,0.00,VWS V14.01,2013-01-10 08:55:00,
2013-01-10 02:57:00,29.3,23.0,30.46,West,265,0.0,0.0,77,0.00,,FEW250,0.00,VWS V14.01,2013-01-10 08:57:00,
2013-01-10 03:00:00,29.2,22.6,30.46,West,265,0.0,0.0,76,0.00,,FEW120,0.00,VWS V14.01,2013-01-10 09:00:00,
2013-01-10 03:02:00,29.2,22.6,30.45,West,265,0.0,0.0,76,0.00,,FEW250,0.00,VWS V14.01,2013-01-10 09:02:00,
2013-01-10 03:05:00,29.2,22.6,30.46,West,265,0.0,0.0,76,0.00,,FEW120,0.00,VWS V14.01,2013-01-10 09:05:00,
2013-01-10 03:07:00,29.2,22.9,30.46,West,265,0.0,0.0,77,0.00,,FEW250,0.00,VWS V14.01,2013-01-10 09:07:00,
2013-01-10 03:10:00,29.2,22.6,30.46,West,265,0.0,0.0,76,0.00,,FEW120,0.00,VWS V14.01,2013-01-10 09:10:00,
2013-01-10 03:12:00,29.1,22.5,30.46,West,265,0.0,0.0,76,0.00,,FEW250,0.00,VWS V14.01,2013-01-10 09:12:00,
2013-01-10 03:15:00,29.2,22.9,30.46,West,265,0.0,0.0,77,0.00,,FEW120,0.00,VWS V14.01,2013-01-10 09:15:00,
2013-01-10 03:17:00,29.4,23.1,30.46,West,265,0.0,0.0,77,0.00,,FEW250,0.00,VWS V14.01,2013-01-10 09:17:00,
2013-01-10 03:20:00,29.4,22.8,30.46,West,265,0.0,0.0,76,0.00,,FEW120,0.00,VWS V14.01,2013-01-10 09:20:00,
2013-01-10 03:22:00,29.4,22.8,30.46,West,265,0.0,0.0,76,0.00,,FEW250,0.00,VWS V14.01,2013-01-10 09:22:00,
2013-01-10 03:25:00,29.2,22.6,30.46,West,265,0.0,0.0,76,0.00,,FEW120,0.00,VWS V14.01,2013-01-10 09:25:00,
2013-01-10 03:27:00,28.9,22.0,30.45,West,265,0.0,0.0,75,0.00,,FEW250,0.00,VWS V14.01,2013-01-10 09:27:00,
2013-01-10 03:30:00,28.5,21.9,30.45,West,265,0.0,0.0,76,0.00,,FEW120,0.00,VWS V14.01,2013-01-10 09:30:00,
2013-01-10 03:32:00,27.9,21.3,30.46,West,265,1.0,1.0,76,0.00,,FEW250,0.00,VWS V14.01,2013-01-10 09:32:00,
2013-01-10 03:35:00,27.5,21.2,30.46,West,265,0.0,2.0,77,0.00,,FEW120,0.00,VWS V14.01,2013-01-10 09:35:00,
2013-01-10 03:37:00,27.3,21.1,30.46,West,265,0.0,2.0,77,0.00,,FEW250,0.00,VWS V14.01,2013-01-10 09:37:00,
2013-01-10 03:40:00,27.0,21.1,30.46,West,265,1.0,3.0,78,0.00,,FEW120,0.00,VWS V14.01,2013-01-10 09:40:00,
2013-01-10 03:42:00,26.5,22.6,30.45,West,265,1.0,3.0,85,0.00,,FEW250,0.00,VWS V14.01,2013-01-10 09:42:00,
2013-01-10 03:45:00,26.3,20.7,30.45,West,265,0.0,3.0,79,0.00,,FEW120,0.00,VWS V14.01,2013-01-10 09:45:00,
2013-01-10 03:47:00,26.3,21.0,30.45,West,265,0.0,0.0,80,0.00,,FEW250,0.00,VWS V14.01,2013-01-10 09:47:00,
2013-01-10 03:50:00,26.3,21.0,30.45,West,265,0.0,0.0,80,0.00,,FEW120,0.00,VWS V14.01,2013-01-10 09:50:00,
2013-01-10 03:52:00,26.4,21.4,30.45,West,265,0.0,0.0,81,0.00,,FEW250,0.00,VWS V14.01,2013-01-10 09:52:00,
2013-01-10 03:55:00,26.3,21.3,30.45,West,266,0.0,0.0,81,0.00,,FEW120,0.00,VWS V14.01,2013-01-10 09:55:00,
2013-01-10 03:57:00,26.2,21.5,30.45,West,266,0.0,0.0,82,0.00,,FEW250,0.00,VWS V14.01,2013-01-10 09:57:00,
2013-01-10 04:00:00,26.2,21.5,30.45,West,266,2.0,3.0,82,0.00,,,0.00,VWS V14.01,2013-01-10 10:00:00,
2013-01-10 04:03:00,26.2,21.5,30.45,West,266,2.0,3.0,82,0.00,,FEW250,0.00,VWS V14.01,2013-01-10 10:03:00,
2013-01-10 04:05:00,26.2,21.5,30.45,West,265,1.0,2.0,82,0.00,,FEW120,0.00,VWS V14.01,2013-01-10 10:05:00,
2013-01-10 04:08:00,26.2,21.5,30.45,West,266,2.0,2.0,82,0.00,,FEW250,0.00,VWS V14.01,2013-01-10 10:08:00,
2013-01-10 04:10:00,26.3,21.6,30.45,West,266,1.0,2.0,82,0.00,,FEW120,0.00,VWS V14.01,2013-01-10 10:10:00,
2013-01-10 04:13:00,26.1,21.4,30.44,West,266,2.0,3.0,82,0.00,,FEW250,0.00,VWS V14.01,2013-01-10 10:13:00,
2013-01-10 04:15:00,26.0,21.3,30.44,West,266,0.0,3.0,82,0.00,,FEW120,0.00,VWS V14.01,2013-01-10 10:15:00,
2013-01-10 04:18:00,26.0,21.3,30.44,West,266,0.0,1.0,82,0.00,,FEW250,0.00,VWS V14.01,2013-01-10 10:18:00,
2013-01-10 04:20:00,26.1,21.6,30.44,West,266,0.0,0.0,83,0.00,,FEW120,0.00,VWS V14.01,2013-01-10 10:20:00,
2013-01-10 04:23:00,26.0,21.6,30.44,West,266,0.0,0.0,83,0.00,,FEW250,0.00,VWS V14.01,2013-01-10 10:23:00,
2013-01-10 04:25:00,26.0,21.6,30.44,West,265,0.0,0.0,83,0.00,,FEW120,0.00,VWS V14.01,2013-01-10 10:25:00,
2013-01-10 04:28:00,26.0,21.6,30.44,West,266,0.0,0.0,83,0.00,,FEW250,0.00,VWS V14.01,2013-01-10 10:28:00,
2013-01-10 04:30:00,26.1,21.6,30.44,West,265,0.0,0.0,83,0.00,,FEW120,0.00,VWS V14.01,2013-01-10 10:30:00,
2013-01-10 04:33:00,26.0,21.6,30.44,West,266,0.0,1.0,83,0.00,,FEW250,0.00,VWS V14.01,2013-01-10 10:33:00,
2013-01-10 04:35:00,26.0,21.6,30.44,West,266,0.0,0.0,83,0.00,,FEW120,0.00,VWS V14.01,2013-01-10 10:35:00,
2013-01-10 04:38:00,25.9,21.5,30.44,West,266,0.0,0.0,83,0.00,,FEW250,0.00,VWS V14.01,2013-01-10 10:38:00,
2013-01-10 04:40:00,25.8,21.4,30.44,West,266,0.0,0.0,83,0.00,,FEW120,0.00,VWS V14.01,2013-01-10 10:40:00,
2013-01-10 04:43:00,25.6,21.2,30.44,West,266,0.0,0.0,83,0.00,,FEW250,0.00,VWS V14.01,2013-01-10 10:43:00,
2013-01-10 04:45:00,25.5,21.4,30.44,West,266,0.0,0.0,84,0.00,,FEW120,0.00,VWS V14.01,2013-01-10 10:45:00,
2013-01-10 04:48:00,25.3,20.9,30.44,West,266,0.0,0.0,83,0.00,,FEW250,0.00,VWS V14.01,2013-01-10 10:48:00,
2013-01-10 04:50:00,25.1,20.7,30.44,West,266,0.0,0.0,83,0.00,,FEW120,0.00,VWS V14.01,2013-01-10 10:50:00,
2013-01-10 04:53:00,24.7,20.3,30.44,West,265,0.0,0.0,83,0.00,,FEW250,0.00,VWS V14.01,2013-01-10 10:53:00,
2013-01-10 04:55:00,24.7,20.3,30.44,West,265,0.0,0.0,83,0.00,,FEW120,0.00,VWS V14.01,2013-01-10 10:55:00,
2013-01-10 04:58:00,24.7,20.6,30.44,West,265,0.0,0.0,84,0.00,,FEW250,0.00,VWS V14.01,2013-01-10 10:58:00,
2013-01-10 05:00:00,24.7,20.6,30.44,West,266,0.0,0.0,84,0.00,,FEW120,0.00,VWS V14.01,2013-01-10 11:00:00,
2013-01-10 05:03:00,24.9,21.0,30.44,West,266,0.0,0.0,85,0.00,,CLR,0.00,VWS V14.01,2013-01-10 11:03:00,
2013-01-10 05:05:00,25.1,21.2,30.44,West,266,0.0,0.0,85,0.00,,FEW120,0.00,VWS V14.01,2013-01-10 11:05:00,
2013-01-10 05:08:00,25.7,22.1,30.44,West,266,0.0,0.0,86,0.00,,CLR,0.00,VWS V14.01,2013-01-10 11:08:00,
2013-01-10 05:10:00,25.8,22.2,30.44,West,266,0.0,0.0,86,0.00,,FEW120,0.00,VWS V14.01,2013-01-10 11:10:00,
2013-01-10 05:13:00,25.8,21.9,30.44,West,266,0.0,0.0,85,0.00,,CLR,0.00,VWS V14.01,2013-01-10 11:13:00,
2013-01-10 05:15:00,25.7,21.8,30.44,West,266,0.0,0.0,85,0.00,,FEW120,0.00,VWS V14.01,2013-01-10 11:15:00,
2013-01-10 05:18:00,25.5,21.6,30.44,West,266,0.0,0.0,85,0.00,,CLR,0.00,VWS V14.01,2013-01-10 11:18:00,
2013-01-10 05:20:00,25.5,21.6,30.44,West,266,0.0,0.0,85,0.00,,FEW120,0.00,VWS V14.01,2013-01-10 11:20:00,
2013-01-10 05:23:00,25.4,21.5,30.44,West,266,0.0,0.0,85,0.00,,CLR,0.00,VWS V14.01,2013-01-10 11:23:00,
2013-01-10 05:25:00,25.4,21.5,30.44,West,266,0.0,0.0,85,0.00,,FEW120,0.00,VWS V14.01,2013-01-10 11:25:00,
2013-01-10 05:28:00,25.4,21.2,30.44,West,266,0.0,0.0,84,0.00,,CLR,0.00,VWS V14.01,2013-01-10 11:28:00,
2013-01-10 05:30:00,25.4,21.2,30.45,West,266,0.0,1.0,84,0.00,,FEW120,0.00,VWS V14.01,2013-01-10 11:30:00,
2013-01-10 05:34:00,25.4,21.2,30.44,West,266,1.0,2.0,84,0.00,,CLR,0.00,VWS V14.01,2013-01-10 11:34:00,
2013-01-10 05:35:00,25.5,21.4,30.44,West,266,1.0,2.0,84,0.00,,FEW120,0.00,VWS V14.01,2013-01-10 11:35:00,
2013-01-10 05:39:00,25.6,21.5,30.44,West,266,0.0,2.0,84,0.00,,CLR,0.00,VWS V14.01,2013-01-10 11:39:00,
2013-01-10 05:40:00,25.6,21.5,30.44,West,266,0.0,1.0,84,0.00,,FEW120,0.00,VWS V14.01,2013-01-10 11:40:00,
2013-01-10 05:44:00,25.8,21.6,30.44,West,266,0.0,0.0,84,0.00,,CLR,0.00,VWS V14.01,2013-01-10 11:44:00,
2013-01-10 05:45:00,25.8,21.6,30.44,West,266,0.0,0.0,84,0.00,,FEW120,0.00,VWS V14.01,2013-01-10 11:45:00,
2013-01-10 05:49:00,25.9,21.5,30.44,West,266,0.0,0.0,83,0.00,,CLR,0.00,VWS V14.01,2013-01-10 11:49:00,
2013-01-10 05:50:00,25.9,21.5,30.44,West,266,0.0,0.0,83,0.00,,FEW120,0.00,VWS V14.01,2013-01-10 11:50:00,
2013-01-10 05:54:00,26.0,21.6,30.44,West,266,0.0,0.0,83,0.00,,CLR,0.00,VWS V14.01,2013-01-10 11:54:00,
2013-01-10 05:55:00,26.0,21.6,30.44,West,265,0.0,0.0,83,0.00,,FEW120,0.00,VWS V14.01,2013-01-10 11:55:00,
2013-01-10 05:59:00,26.1,21.6,30.44,West,266,0.0,0.0,83,0.00,,CLR,0.00,VWS V14.01,2013-01-10 11:59:00,
2013-01-10 06:00:00,26.1,21.6,30.44,West,266,0.0,0.0,83,0.00,,FEW120,0.00,VWS V14.01,2013-01-10 12:00:00,
2013-01-10 06:04:00,26.3,21.9,30.44,West,266,0.0,0.0,83,0.00,,SCT250,0.00,VWS V14.01,2013-01-10 12:04:00,
2013-01-10 06:05:00,26.3,21.9,30.44,West,266,0.0,0.0,83,0.00,,FEW120,0.00,VWS V14.01,2013-01-10 12:05:00,
2013-01-10 06:09:00,26.2,21.8,30.44,West,266,0.0,0.0,83,0.00,,SCT250,0.00,VWS V14.01,2013-01-10 12:09:00,
2013-01-10 06:10:00,26.2,21.8,30.44,West,266,0.0,0.0,83,0.00,,FEW120,0.00,VWS V14.01,2013-01-10 12:10:00,
2013-01-10 06:14:00,26.4,22.0,30.44,West,266,0.0,0.0,83,0.00,,SCT250,0.00,VWS V14.01,2013-01-10 12:14:00,
2013-01-10 06:15:00,26.4,22.0,30.44,West,266,0.0,0.0,83,0.00,,FEW120,0.00,VWS V14.01,2013-01-10 12:15:00,
2013-01-10 06:19:00,26.4,22.0,30.44,West,266,0.0,0.0,83,0.00,,SCT250,0.00,VWS V14.01,2013-01-10 12:19:00,
2013-01-10 06:20:00,26.4,22.0,30.44,West,266,0.0,0.0,83,0.00,,FEW120,0.00,VWS V14.01,2013-01-10 12:20:00,
2013-01-10 06:24:00,26.5,22.0,30.44,West,266,0.0,0.0,83,0.00,,SCT250,0.00,VWS V14.01,2013-01-10 12:24:00,
2013-01-10 06:25:00,26.5,22.0,30.44,West,266,0.0,0.0,83,0.00,,FEW120,0.00,VWS V14.01,2013-01-10 12:25:00,
2013-01-10 06:29:00,26.4,22.0,30.43,West,266,0.0,0.0,83,0.00,,SCT250,0.00,VWS V14.01,2013-01-10 12:29:00,
2013-01-10 06:30:00,26.4,21.7,30.43,West,266,0.0,0.0,82,0.00,,FEW120,0.00,VWS V14.01,2013-01-10 12:30:00,
2013-01-10 06:34:00,26.1,21.6,30.43,West,266,0.0,0.0,83,0.00,,SCT250,0.00,VWS V14.01,2013-01-10 12:34:00,
2013-01-10 06:35:00,26.1,21.6,30.43,West,266,0.0,0.0,83,0.00,,FEW120,0.00,VWS V14.01,2013-01-10 12:35:00,
2013-01-10 06:39:00,25.6,21.2,30.43,West,266,0.0,0.0,83,0.00,,SCT250,0.00,VWS V14.01,2013-01-10 12:39:00,
2013-01-10 06:40:00,25.6,21.2,30.43,West,266,0.0,0.0,83,0.00,,FEW120,0.00,VWS V14.01,2013-01-10 12:40:00,
2013-01-10 06:44:00,25.3,21.1,30.43,West,266,0.0,0.0,84,0.00,,SCT250,0.00,VWS V14.01,2013-01-10 12:44:00,
2013-01-10 06:45:00,25.3,21.1,30.43,West,266,0.0,0.0,84,0.00,,FEW120,0.00,VWS V14.01,2013-01-10 12:45:00,
2013-01-10 06:49:00,25.1,21.0,30.44,West,266,0.0,0.0,84,0.00,,SCT250,0.00,VWS V14.01,2013-01-10 12:49:00,
2013-01-10 06:50:00,25.1,21.0,30.44,West,266,0.0,0.0,84,0.00,,FEW120,0.00,VWS V14.01,2013-01-10 12:50:00,
2013-01-10 06:54:00,24.9,20.8,30.44,West,266,0.0,0.0,84,0.00,,SCT250,0.00,VWS V14.01,2013-01-10 12:54:00,
2013-01-10 06:55:00,24.9,20.8,30.44,West,266,0.0,0.0,84,0.00,,FEW120,0.00,VWS V14.01,2013-01-10 12:55:00,
2013-01-10 06:59:00,24.7,20.6,30.43,West,266,0.0,0.0,84,0.00,,SCT250,0.00,VWS V14.01,2013-01-10 12:59:00,
2013-01-10 07:00:00,24.7,20.6,30.43,West,266,0.0,0.0,84,0.00,,FEW120,0.00,VWS V14.01,2013-01-10 13:00:00,
2013-01-10 07:05:00,24.7,20.6,30.43,West,266,0.0,0.0,84,0.00,,BKN250,0.00,VWS V14.01,2013-01-10 13:05:00,
2013-01-10 07:10:00,24.8,20.9,30.43,West,266,0.0,0.0,85,0.00,,BKN250,0.00,VWS V14.01,2013-01-10 13:10:00,
2013-01-10 07:15:00,25.0,21.1,30.43,West,266,0.0,0.0,85,0.00,,BKN250,0.00,VWS V14.01,2013-01-10 13:15:00,
2013-01-10 07:20:00,25.3,21.4,30.43,West,266,0.0,0.0,85,0.00,,BKN250,0.00,VWS V14.01,2013-01-10 13:20:00,
2013-01-10 07:25:00,25.5,21.9,30.43,West,266,0.0,0.0,86,0.00,,BKN250,0.00,VWS V14.01,2013-01-10 13:25:00,
2013-01-10 07:30:00,25.4,21.5,30.44,West,266,0.0,0.0,85,0.00,,BKN250,0.00,VWS V14.01,2013-01-10 13:30:00,
2013-01-10 07:35:00,25.3,21.4,30.43,West,266,0.0,0.0,85,0.00,,BKN250,0.00,VWS V14.01,2013-01-10 13:35:00,
2013-01-10 07:40:00,25.2,21.3,30.44,West,266,0.0,0.0,85,0.00,,BKN250,0.00,VWS V14.01,2013-01-10 13:40:00,
2013-01-10 07:45:00,25.2,21.3,30.43,West,266,0.0,0.0,85,0.00,,BKN250,0.00,VWS V14.01,2013-01-10 13:45:00,
2013-01-10 07:50:00,25.1,21.2,30.44,West,266,0.0,0.0,85,0.00,,BKN250,0.00,VWS V14.01,2013-01-10 13:50:00,
2013-01-10 07:55:00,24.8,20.7,30.44,West,266,0.0,0.0,84,0.00,,BKN250,0.00,VWS V14.01,2013-01-10 13:55:00,
2013-01-10 08:00:00,24.7,20.6,30.44,West,266,0.0,0.0,84,0.00,,BKN250,0.00,VWS V14.01,2013-01-10 14:00:00,
2013-01-10 08:05:00,24.7,20.8,30.44,West,266,0.0,0.0,85,0.00,,BKN250,0.00,VWS V14.01,2013-01-10 14:05:00,
2013-01-10 08:10:00,24.7,20.8,30.44,West,266,0.0,0.0,85,0.00,,BKN250,0.00,VWS V14.01,2013-01-10 14:10:00,
2013-01-10 08:15:00,24.7,20.8,30.44,West,266,0.0,0.0,85,0.00,,BKN250,0.00,VWS V14.01,2013-01-10 14:15:00,
2013-01-10 08:20:00,24.7,20.8,30.44,West,266,0.0,0.0,85,0.00,,FEW120,0.00,VWS V14.01,2013-01-10 14:20:00,
2013-01-10 08:21:00,24.8,20.9,30.44,West,266,0.0,0.0,85,0.00,,BKN250,0.00,VWS V14.01,2013-01-10 14:21:00,
2013-01-10 08:25:00,24.9,21.0,30.44,West,266,0.0,0.0,85,0.00,,FEW120,0.00,VWS V14.01,2013-01-10 14:25:00,
2013-01-10 08:26:00,25.0,21.1,30.44,West,266,0.0,0.0,85,0.00,,BKN250,0.00,VWS V14.01,2013-01-10 14:26:00,
2013-01-10 08:30:00,25.1,21.2,30.44,West,266,0.0,0.0,85,0.00,,FEW120,0.00,VWS V14.01,2013-01-10 14:30:00,
2013-01-10 08:31:00,25.2,23.2,30.44,West,266,0.0,0.0,92,0.00,,BKN250,0.00,VWS V14.01,2013-01-10 14:31:00,
2013-01-10 08:35:00,25.3,21.4,30.44,West,266,0.0,0.0,85,0.00,,FEW120,0.00,VWS V14.01,2013-01-10 14:35:00,
2013-01-10 08:36:00,25.3,21.4,30.44,West,266,0.0,0.0,85,0.00,,BKN250,0.00,VWS V14.01,2013-01-10 14:36:00,
2013-01-10 08:40:00,25.7,21.8,30.44,West,266,0.0,0.0,85,0.00,,FEW120,0.00,VWS V14.01,2013-01-10 14:40:00,
2013-01-10 08:41:00,25.9,22.0,30.44,West,266,0.0,0.0,85,0.00,,BKN250,0.00,VWS V14.01,2013-01-10 14:41:00,
2013-01-10 08:45:00,26.3,22.4,30.44,West,266,0.0,0.0,85,0.00,,FEW120,0.00,VWS V14.01,2013-01-10 14:45:00,
2013-01-10 08:46:00,26.5,22.6,30.44,West,266,0.0,0.0,85,0.00,,BKN250,0.00,VWS V14.01,2013-01-10 14:46:00,
2013-01-10 08:50:00,26.9,23.0,30.44,West,266,0.0,0.0,85,0.00,,FEW120,0.00,VWS V14.01,2013-01-10 14:50:00,
2013-01-10 08:51:00,27.1,23.2,30.43,West,266,0.0,0.0,85,0.00,,BKN250,0.00,VWS V14.01,2013-01-10 14:51:00,
2013-01-10 08:55:00,27.5,23.3,30.43,West,266,0.0,0.0,84,0.00,,FEW120,0.00,VWS V14.01,2013-01-10 14:55:00,
2013-01-10 08:56:00,27.6,23.4,30.44,West,266,0.0,0.0,84,0.00,,BKN250,0.00,VWS V14.01,2013-01-10 14:56:00,
2013-01-10 09:00:00,27.9,23.7,30.43,West,266,0.0,0.0,84,0.00,,FEW120,0.00,VWS V14.01,2013-01-10 15:00:00,
2013-01-10 09:01:00,28.0,23.8,30.43,West,266,0.0,0.0,84,0.00,,BKN250,0.00,VWS V14.01,2013-01-10 15:01:00,
2013-01-10 09:05:00,28.5,24.0,30.43,West,266,0.0,0.0,83,0.00,,FEW120,0.00,VWS V14.01,2013-01-10 15:05:00,
2013-01-10 09:06:00,28.7,24.2,30.43,West,266,0.0,0.0,83,0.00,,BKN250,0.00,VWS V14.01,2013-01-10 15:06:00,
2013-01-10 09:10:00,29.1,24.6,30.43,West,266,0.0,0.0,83,0.00,,FEW120,0.00,VWS V14.01,2013-01-10 15:10:00,
2013-01-10 09:11:00,29.4,24.9,30.43,West,266,0.0,0.0,83,0.00,,BKN250,0.00,VWS V14.01,2013-01-10 15:11:00,
2013-01-10 09:15:00,30.0,25.5,30.43,West,266,0.0,0.0,83,0.00,,FEW120,0.00,VWS V14.01,2013-01-10 15:15:00,
2013-01-10 09:16:00,30.5,26.0,30.43,West,266,0.0,0.0,83,0.00,,BKN250,0.00,VWS V14.01,2013-01-10 15:16:00,
2013-01-10 09:20:00,31.1,26.3,30.43,West,266,0.0,0.0,82,0.00,,FEW120,0.00,VWS V14.01,2013-01-10 15:20:00,
2013-01-10 09:21:00,31.4,26.2,30.43,West,266,0.0,0.0,81,0.00,,BKN250,0.00,VWS V14.01,2013-01-10 15:21:00,
2013-01-10 09:25:00,31.7,26.2,30.43,West,266,0.0,0.0,80,0.00,,FEW120,0.00,VWS V14.01,2013-01-10 15:25:00,
2013-01-10 09:26:00,32.0,26.8,30.43,West,266,0.0,0.0,81,0.00,,BKN250,0.00,VWS V14.01,2013-01-10 15:26:00,
2013-01-10 09:30:00,32.7,27.5,30.42,West,265,0.0,0.0,81,0.00,,FEW120,0.00,VWS V14.01,2013-01-10 15:30:00,
2013-01-10 09:31:00,33.2,28.0,30.42,West,264,0.0,0.0,81,0.00,,BKN250,0.00,VWS V14.01,2013-01-10 15:31:00,
2013-01-10 09:35:00,34.1,28.9,30.42,West,264,0.0,1.0,81,0.00,,FEW120,0.00,VWS V14.01,2013-01-10 15:35:00,
2013-01-10 09:36:00,34.7,29.5,30.42,West,263,0.0,1.0,81,0.00,,BKN250,0.00,VWS V14.01,2013-01-10 15:36:00,
2013-01-10 09:40:00,35.3,29.8,30.42,SSE,162,0.0,3.0,80,0.00,,FEW120,0.00,VWS V14.01,2013-01-10 15:40:00,
2013-01-10 09:41:00,35.5,29.6,30.42,SSE,162,0.0,3.0,79,0.00,,BKN250,0.00,VWS V14.01,2013-01-10 15:41:00,
2013-01-10 09:45:00,35.9,29.7,30.41,SSE,162,0.0,1.0,78,0.00,,FEW120,0.00,VWS V14.01,2013-01-10 15:45:00,
2013-01-10 09:46:00,36.0,29.8,30.41,SSE,162,0.0,0.0,78,0.00,,BKN250,0.00,VWS V14.01,2013-01-10 15:46:00,
2013-01-10 09:50:00,36.0,29.5,30.41,SSE,162,1.0,2.0,77,0.00,,FEW120,0.00,VWS V14.01,2013-01-10 15:50:00,
2013-01-10 09:52:00,35.9,29.4,30.41,SSE,161,0.0,2.0,77,0.00,,BKN250,0.00,VWS V14.01,2013-01-10 15:52:00,
2013-01-10 09:55:00,35.8,29.3,30.41,SSE,162,0.0,2.0,77,0.00,,FEW120,0.00,VWS V14.01,2013-01-10 15:55:00,
2013-01-10 09:57:00,35.7,29.2,30.41,SSE,162,0.0,1.0,77,0.00,,BKN250,0.00,VWS V14.01,2013-01-10 15:57:00,
2013-01-10 10:00:00,35.6,29.1,30.41,SSE,162,0.0,1.0,77,0.00,,FEW120,0.00,VWS V14.01,2013-01-10 16:00:00,
2013-01-10 10:02:00,35.6,29.4,30.41,SSE,161,0.0,2.0,78,0.00,,BKN250,0.00,VWS V14.01,2013-01-10 16:02:00,
2013-01-10 10:05:00,35.4,28.9,30.41,SE,127,1.0,4.0,77,0.00,,FEW120,0.00,VWS V14.01,2013-01-10 16:05:00,
2013-01-10 10:07:00,35.2,29.0,30.40,SE,126,0.0,4.0,78,0.00,,BKN250,0.00,VWS V14.01,2013-01-10 16:07:00,
2013-01-10 10:10:00,35.0,28.9,30.41,ESE,116,2.0,4.0,78,0.00,,FEW120,0.00,VWS V14.01,2013-01-10 16:10:00,
2013-01-10 10:12:00,34.9,28.8,30.40,ESE,115,0.0,4.0,78,0.00,,BKN250,0.00,VWS V14.01,2013-01-10 16:12:00,
2013-01-10 10:15:00,34.8,29.0,30.40,ESE,115,0.0,3.0,79,0.00,,FEW120,0.00,VWS V14.01,2013-01-10 16:15:00,
2013-01-10 10:17:00,34.7,28.9,30.40,ESE,115,0.0,3.0,79,0.00,,BKN250,0.00,VWS V14.01,2013-01-10 16:17:00,
2013-01-10 10:20:00,34.8,29.3,30.40,ESE,115,2.0,3.0,80,0.00,,FEW120,0.00,VWS V14.01,2013-01-10 16:20:00,
2013-01-10 10:22:00,34.8,29.3,30.39,ESE,116,2.0,3.0,80,0.00,,BKN250,0.00,VWS V14.01,2013-01-10 16:22:00,
2013-01-10 10:25:00,34.9,29.4,30.39,ESE,117,1.0,3.0,80,0.00,,FEW120,0.00,VWS V14.01,2013-01-10 16:25:00,
2013-01-10 10:27:00,35.0,29.5,30.39,ESE,117,0.0,3.0,80,0.00,,BKN250,0.00,VWS V14.01,2013-01-10 16:27:00,
2013-01-10 10:30:00,35.1,29.9,30.39,ESE,117,0.0,3.0,81,0.00,,FEW120,0.00,VWS V14.01,2013-01-10 16:30:00,
2013-01-10 10:32:00,35.4,30.2,30.39,ESE,117,0.0,2.0,81,0.00,,BKN250,0.00,VWS V14.01,2013-01-10 16:32:00,
2013-01-10 10:35:00,35.6,30.4,30.39,ESE,119,0.0,3.0,81,0.00,,FEW120,0.00,VWS V14.01,2013-01-10 16:35:00,
2013-01-10 10:37:00,35.8,30.2,30.39,ESE,120,0.0,0.0,80,0.00,,BKN250,0.00,VWS V14.01,2013-01-10 16:37:00,
2013-01-10 10:40:00,36.1,30.8,30.39,ESE,120,0.0,0.0,81,0.00,,FEW120,0.00,VWS V14.01,2013-01-10 16:40:00,
2013-01-10 10:42:00,36.3,30.7,30.39,ESE,121,0.0,3.0,80,0.00,,BKN250,0.00,VWS V14.01,2013-01-10 16:42:00,
2013-01-10 10:45:00,36.4,30.8,30.39,ESE,121,0.0,3.0,80,0.00,,FEW120,0.00,VWS V14.01,2013-01-10 16:45:00,
2013-01-10 10:47:00,36.5,30.9,30.38,SE,134,0.0,2.0,80,0.00,,BKN250,0.00,VWS V14.01,2013-01-10 16:47:00,
2013-01-10 10:50:00,36.7,31.4,30.38,SE,134,0.0,3.0,81,0.00,,FEW120,0.00,VWS V14.01,2013-01-10 16:50:00,
2013-01-10 10:52:00,36.9,31.6,30.38,SE,134,1.0,3.0,81,0.00,,BKN250,0.00,VWS V14.01,2013-01-10 16:52:00,
2013-01-10 10:55:00,37.1,31.8,30.38,SE,134,2.0,3.0,81,0.00,,FEW120,0.00,VWS V14.01,2013-01-10 16:55:00,
2013-01-10 10:57:00,37.3,32.0,30.37,SE,134,1.0,3.0,81,0.00,,BKN250,0.00,VWS V14.01,2013-01-10 16:57:00,
2013-01-10 11:00:00,37.4,32.1,30.36,SE,134,0.0,3.0,81,0.00,,FEW120,0.00,VWS V14.01,2013-01-10 17:00:00,
2013-01-10 11:02:00,37.4,31.8,30.36,SE,134,1.0,3.0,80,0.00,,BKN220,0.00,VWS V14.01,2013-01-10 17:02:00,
2013-01-10 11:05:00,37.3,31.7,30.36,SE,134,0.0,3.0,80,0.00,,FEW120,0.00,VWS V14.01,2013-01-10 17:05:00,
2013-01-10 11:07:00,37.3,32.0,30.36,SE,134,0.0,0.0,81,0.00,,BKN220,0.00,VWS V14.01,2013-01-10 17:07:00,
2013-01-10 11:10:00,37.4,32.1,30.36,SE,134,0.0,0.0,81,0.00,,FEW120,0.00,VWS V14.01,2013-01-10 17:10:00,
2013-01-10 11:12:00,37.5,32.2,30.35,SE,134,0.0,0.0,81,0.00,,BKN220,0.00,VWS V14.01,2013-01-10 17:12:00,
2013-01-10 11:15:00,37.5,32.2,30.35,SE,134,1.0,1.0,81,0.00,,FEW120,0.00,VWS V14.01,2013-01-10 17:15:00,
2013-01-10 11:17:00,37.3,32.0,30.34,SE,134,0.0,3.0,81,0.00,,BKN220,0.00,VWS V14.01,2013-01-10 17:17:00,
2013-01-10 11:20:00,37.3,32.0,30.34,SE,134,0.0,1.0,81,0.00,,FEW120,0.00,VWS V14.01,2013-01-10 17:20:00,
2013-01-10 11:22:00,37.2,32.2,30.34,SE,134,0.0,0.0,82,0.00,,BKN220,0.00,VWS V14.01,2013-01-10 17:22:00,
2013-01-10 11:25:00,37.2,32.2,30.34,SE,134,0.0,0.0,82,0.00,,FEW120,0.00,VWS V14.01,2013-01-10 17:25:00,
2013-01-10 11:28:00,37.2,32.2,30.33,SE,134,0.0,0.0,82,0.00,,BKN220,0.00,VWS V14.01,2013-01-10 17:28:00,
2013-01-10 11:30:00,37.3,32.3,30.33,SE,134,0.0,0.0,82,0.00,,FEW120,0.00,VWS V14.01,2013-01-10 17:30:00,
2013-01-10 11:33:00,37.4,32.7,30.33,SE,134,0.0,1.0,83,0.00,,BKN220,0.00,VWS V14.01,2013-01-10 17:33:00,
2013-01-10 11:35:00,37.4,32.7,30.33,SE,134,0.0,1.0,83,0.00,,FEW120,0.00,VWS V14.01,2013-01-10 17:35:00,
2013-01-10 11:38:00,37.3,32.6,30.33,SE,134,0.0,2.0,83,0.00,,BKN220,0.00,VWS V14.01,2013-01-10 17:38:00,
2013-01-10 11:40:00,37.3,32.6,30.33,SE,134,0.0,2.0,83,0.00,,FEW120,0.00,VWS V14.01,2013-01-10 17:40:00,
2013-01-10 11:43:00,37.3,32.6,30.33,SE,134,0.0,2.0,83,0.00,,BKN220,0.00,VWS V14.01,2013-01-10 17:43:00,
2013-01-10 11:45:00,37.4,33.0,30.33,SE,134,1.0,3.0,84,0.00,,FEW120,0.00,VWS V14.01,2013-01-10 17:45:00,
2013-01-10 11:48:00,37.4,33.0,30.33,SE,138,0.0,4.0,84,0.00,,BKN220,0.00,VWS V14.01,2013-01-10 17:48:00,
2013-01-10 11:50:00,37.5,33.4,30.32,SSE,149,1.0,4.0,85,0.00,,FEW120,0.00,VWS V14.01,2013-01-10 17:50:00,
2013-01-10 11:53:00,37.8,33.7,30.32,SSE,148,0.0,4.0,85,0.00,,BKN220,0.00,VWS V14.01,2013-01-10 17:53:00,
2013-01-10 11:55:00,37.8,33.7,30.32,SE,142,0.0,5.0,85,0.00,,FEW120,0.00,VWS V14.01,2013-01-10 17:55:00,
2013-01-10 11:58:00,38.0,33.9,30.32,SE,141,0.0,5.0,85,0.00,,BKN220,0.00,VWS V14.01,2013-01-10 17:58:00,
2013-01-10 12:00:00,38.0,33.9,30.32,SE,140,4.0,4.0,85,0.00,,FEW120,0.00,VWS V14.01,2013-01-10 18:00:00,
2013-01-10 12:03:00,38.1,34.0,30.31,SE,139,0.0,4.0,85,0.00,,OVC210,0.00,VWS V14.01,2013-01-10 18:03:00,
2013-01-10 12:05:00,38.2,33.8,30.31,SSE,159,0.0,4.0,84,0.00,,FEW120,0.00,VWS V14.01,2013-01-10 18:05:00,
2013-01-10 12:08:00,38.3,34.2,30.31,SSE,153,0.0,4.0,85,0.00,,OVC210,0.00,VWS V14.01,2013-01-10 18:08:00,
2013-01-10 12:10:00,38.3,33.9,30.31,SSE,160,0.0,4.0,84,0.00,,FEW120,0.00,VWS V14.01,2013-01-10 18:10:00,
2013-01-10 12:13:00,38.4,34.0,30.31,ESE,102,0.0,3.0,84,0.00,,OVC210,0.00,VWS V14.01,2013-01-10 18:13:00,
2013-01-10 12:15:00,38.5,34.1,30.30,SE,141,0.0,3.0,84,0.00,,FEW120,0.00,VWS V14.01,2013-01-10 18:15:00,
2013-01-10 12:18:00,38.5,34.1,30.30,SE,139,1.0,4.0,84,0.00,,OVC210,0.00,VWS V14.01,2013-01-10 18:18:00,
2013-01-10 12:20:00,38.5,34.1,30.30,SSE,162,0.0,4.0,84,0.00,,FEW120,0.00,VWS V14.01,2013-01-10 18:20:00,
2013-01-10 12:23:00,38.5,34.1,30.30,SE,141,0.0,4.0,84,0.00,,OVC210,0.00,VWS V14.01,2013-01-10 18:23:00,
2013-01-10 12:25:00,38.5,34.1,30.30,SE,138,0.0,4.0,84,0.00,,FEW120,0.00,VWS V14.01,2013-01-10 18:25:00,
2013-01-10 12:28:00,38.6,34.2,30.29,SSE,150,0.0,4.0,84,0.00,,OVC210,0.00,VWS V14.01,2013-01-10 18:28:00,
2013-01-10 12:30:00,38.7,34.3,30.29,SE,134,0.0,4.0,84,0.00,,FEW120,0.00,VWS V14.01,2013-01-10 18:30:00,
2013-01-10 12:33:00,38.9,34.5,30.29,SE,129,2.0,7.0,84,0.00,,OVC210,0.00,VWS V14.01,2013-01-10 18:33:00,
2013-01-10 12:35:00,39.0,34.6,30.29,SSE,147,4.0,9.0,84,0.00,,FEW120,0.00,VWS V14.01,2013-01-10 18:35:00,
2013-01-10 12:38:00,39.1,34.7,30.29,SE,136,5.0,10.0,84,0.00,,OVC210,0.00,VWS V14.01,2013-01-10 18:38:00,
2013-01-10 12:40:00,39.2,34.8,30.29,SE,125,3.0,10.0,84,0.00,,FEW120,0.00,VWS V14.01,2013-01-10 18:40:00,
2013-01-10 12:43:00,39.2,34.8,30.29,SE,138,3.0,8.0,84,0.00,,OVC210,0.00,VWS V14.01,2013-01-10 18:43:00,
2013-01-10 12:45:00,39.2,34.8,30.29,SE,146,1.0,9.0,84,0.00,,FEW120,0.00,VWS V14.01,2013-01-10 18:45:00,
2013-01-10 12:48:00,39.2,34.8,30.28,ESE,116,3.0,8.0,84,0.00,,OVC210,0.00,VWS V14.01,2013-01-10 18:48:00,
2013-01-10 12:50:00,39.2,34.8,30.28,South,174,2.0,8.0,84,0.00,,FEW120,0.00,VWS V14.01,2013-01-10 18:50:00,
2013-01-10 12:53:00,39.2,34.8,30.28,SSE,168,4.0,6.0,84,0.00,,OVC210,0.00,VWS V14.01,2013-01-10 18:53:00,
2013-01-10 12:55:00,39.3,34.9,30.28,SSE,167,3.0,6.0,84,0.00,,FEW120,0.00,VWS V14.01,2013-01-10 18:55:00,
2013-01-10 12:58:00,39.3,34.9,30.27,SE,134,2.0,5.0,84,0.00,,OVC210,0.00,VWS V14.01,2013-01-10 18:58:00,
2013-01-10 13:00:00,39.3,34.9,30.27,SE,142,4.0,8.0,84,0.00,,FEW120,0.00,VWS V14.01,2013-01-10 19:00:00,
2013-01-10 13:03:00,39.2,34.8,30.27,ESE,116,4.0,7.0,84,0.00,,OVC250,0.00,VWS V14.01,2013-01-10 19:03:00,
2013-01-10 13:05:00,39.2,34.8,30.27,SE,131,4.0,8.0,84,0.00,,FEW120,0.00,VWS V14.01,2013-01-10 19:05:00,
2013-01-10 13:09:00,39.1,35.0,30.27,SE,130,5.0,9.0,85,0.00,,OVC250,0.00,VWS V14.01,2013-01-10 19:09:00,
2013-01-10 13:10:00,39.0,34.9,30.27,ESE,123,5.0,9.0,85,0.00,,FEW120,0.00,VWS V14.01,2013-01-10 19:10:00,
2013-01-10 13:14:00,39.0,34.9,30.26,SE,126,4.0,10.0,85,0.00,,OVC250,0.00,VWS V14.01,2013-01-10 19:14:00,
2013-01-10 13:15:00,38.9,34.8,30.26,SE,127,4.0,10.0,85,0.00,,FEW120,0.00,VWS V14.01,2013-01-10 19:15:00,
2013-01-10 13:19:00,38.9,34.8,30.26,SE,136,1.0,8.0,85,0.00,,OVC250,0.00,VWS V14.01,2013-01-10 19:19:00,
2013-01-10 13:20:00,38.9,35.1,30.26,ESE,120,5.0,9.0,86,0.00,,FEW120,0.00,VWS V14.01,2013-01-10 19:20:00,
2013-01-10 13:24:00,38.9,34.8,30.26,SE,126,3.0,9.0,85,0.00,,OVC250,0.00,VWS V14.01,2013-01-10 19:24:00,
2013-01-10 13:25:00,39.0,34.9,30.26,SE,138,6.0,9.0,85,0.00,,FEW120,0.00,VWS V14.01,2013-01-10 19:25:00,
2013-01-10 13:29:00,39.0,34.9,30.25,ESE,115,2.0,10.0,85,0.00,,OVC250,0.00,VWS V14.01,2013-01-10 19:29:00,
2013-01-10 13:30:00,39.0,34.9,30.25,SE,126,4.0,9.0,85,0.00,,FEW120,0.00,VWS V14.01,2013-01-10 19:30:00,
2013-01-10 13:34:00,39.0,34.9,30.25,ESE,117,9.0,10.0,85,0.00,,OVC250,0.00,VWS V14.01,2013-01-10 19:34:00,
2013-01-10 13:35:00,39.0,34.9,30.25,SE,145,6.0,10.0,85,0.00,,FEW120,0.00,VWS V14.01,2013-01-10 19:35:00,
2013-01-10 13:39:00,39.1,35.0,30.25,SE,137,8.0,9.0,85,0.00,,OVC250,0.00,VWS V14.01,2013-01-10 19:39:00,
2013-01-10 13:40:00,39.1,35.0,30.25,SE,128,4.0,9.0,85,0.00,,FEW120,0.00,VWS V14.01,2013-01-10 19:40:00,
2013-01-10 13:44:00,39.3,35.2,30.24,ESE,117,4.0,8.0,85,0.00,,OVC250,0.00,VWS V14.01,2013-01-10 19:44:00,
2013-01-10 13:45:00,39.3,35.2,30.24,SE,126,3.0,8.0,85,0.00,,FEW120,0.00,VWS V14.01,2013-01-10 19:45:00,
2013-01-10 13:49:00,39.3,34.9,30.24,SE,132,3.0,10.0,84,0.00,,OVC250,0.00,VWS V14.01,2013-01-10 19:49:00,
2013-01-10 13:50:00,39.3,34.9,30.24,SE,135,3.0,10.0,84,0.00,,FEW120,0.00,VWS V14.01,2013-01-10 19:50:00,
2013-01-10 13:54:00,39.3,35.2,30.24,SE,142,3.0,9.0,85,0.00,,OVC250,0.00,VWS V14.01,2013-01-10 19:54:00,
2013-01-10 13:55:00,39.3,35.2,30.24,SE,142,2.0,9.0,85,0.00,,FEW120,0.00,VWS V14.01,2013-01-10 19:55:00,
2013-01-10 13:59:00,39.4,35.3,30.24,SE,136,6.0,9.0,85,0.00,,OVC250,0.00,VWS V14.01,2013-01-10 19:59:00,
2013-01-10 14:00:00,39.4,35.3,30.24,SE,138,5.0,9.0,85,0.00,,FEW120,0.00,VWS V14.01,2013-01-10 20:00:00,
2013-01-10 14:04:00,39.3,35.2,30.23,SSE,149,9.0,12.0,85,0.00,,OVC230,0.00,VWS V14.01,2013-01-10 20:04:00,
2013-01-10 14:05:00,39.3,35.2,30.23,SSE,149,9.0,12.0,85,0.00,,FEW120,0.00,VWS V14.01,2013-01-10 20:05:00,
2013-01-10 14:09:00,39.4,35.3,30.24,SE,139,5.0,11.0,85,0.00,,OVC230,0.00,VWS V14.01,2013-01-10 20:09:00,
2013-01-10 14:10:00,39.4,35.3,30.24,SE,139,5.0,11.0,85,0.00,,FEW120,0.00,VWS V14.01,2013-01-10 20:10:00,
2013-01-10 14:14:00,39.3,35.2,30.23,ESE,123,8.0,12.0,85,0.00,,OVC230,0.00,VWS V14.01,2013-01-10 20:14:00,
2013-01-10 14:15:00,39.3,35.2,30.23,ESE,123,8.0,12.0,85,0.00,,FEW120,0.00,VWS V14.01,2013-01-10 20:15:00,
2013-01-10 14:19:00,39.2,35.4,30.23,SE,128,8.0,12.0,86,0.00,,OVC230,0.00,VWS V14.01,2013-01-10 20:19:00,
2013-01-10 14:20:00,39.2,35.4,30.23,SE,128,8.0,12.0,86,0.00,,FEW120,0.00,VWS V14.01,2013-01-10 20:20:00,
2013-01-10 14:24:00,39.1,35.3,30.23,SE,124,4.0,8.0,86,0.00,,OVC230,0.00,VWS V14.01,2013-01-10 20:24:00,
2013-01-10 14:25:00,39.1,35.3,30.23,SE,124,4.0,8.0,86,0.00,,FEW120,0.00,VWS V14.01,2013-01-10 20:25:00,
2013-01-10 14:29:00,39.1,35.3,30.23,SE,136,7.0,10.0,86,0.00,,OVC230,0.00,VWS V14.01,2013-01-10 20:29:00,
2013-01-10 14:30:00,39.1,35.3,30.23,SE,136,7.0,10.0,86,0.00,,FEW120,0.00,VWS V14.01,2013-01-10 20:30:00,
2013-01-10 14:34:00,39.1,35.3,30.23,SSE,150,11.0,13.0,86,0.00,,OVC230,0.00,VWS V14.01,2013-01-10 20:34:00,
2013-01-10 14:35:00,39.1,35.3,30.23,SSE,150,11.0,13.0,86,0.00,,FEW120,0.00,VWS V14.01,2013-01-10 20:35:00,
2013-01-10 14:39:00,39.0,35.2,30.23,East,79,2.0,11.0,86,0.00,,OVC230,0.00,VWS V14.01,2013-01-10 20:39:00,
2013-01-10 14:40:00,39.0,35.2,30.23,East,79,2.0,11.0,86,0.00,,FEW120,0.00,VWS V14.01,2013-01-10 20:40:00,
2013-01-10 14:44:00,39.0,35.2,30.22,SE,134,5.0,10.0,86,0.00,,OVC230,0.00,VWS V14.01,2013-01-10 20:44:00,
2013-01-10 14:45:00,39.0,35.2,30.22,SE,134,5.0,10.0,86,0.00,,FEW120,0.00,VWS V14.01,2013-01-10 20:45:00,
2013-01-10 14:49:00,38.8,35.0,30.22,ESE,114,9.0,10.0,86,0.00,,OVC230,0.00,VWS V14.01,2013-01-10 20:49:00,
2013-01-10 14:50:00,38.8,35.0,30.22,ESE,114,9.0,10.0,86,0.00,,FEW120,0.00,VWS V14.01,2013-01-10 20:50:00,
2013-01-10 14:54:00,38.7,35.2,30.22,SE,128,8.0,8.0,87,0.00,,OVC230,0.00,VWS V14.01,2013-01-10 20:54:00,
2013-01-10 14:55:00,38.7,35.2,30.22,SE,128,8.0,8.0,87,0.00,,FEW120,0.00,VWS V14.01,2013-01-10 20:55:00,
2013-01-10 15:00:00,38.7,35.2,30.22,SE,138,2.0,11.0,87,0.00,,OVC230,0.00,VWS V14.01,2013-01-10 21:00:00,
2013-01-10 15:05:00,38.7,35.2,30.21,ESE,119,5.0,9.0,87,0.00,,OVC200,0.00,VWS V14.01,2013-01-10 21:05:00,
2013-01-10 15:10:00,38.7,35.2,30.22,SE,136,4.0,9.0,87,0.00,,OVC200,0.00,VWS V14.01,2013-01-10 21:10:00,
2013-01-10 15:15:00,38.7,35.5,30.22,SE,135,5.0,11.0,88,0.00,,OVC200,0.00,VWS V14.01,2013-01-10 21:15:00,
2013-01-10 15:20:00,38.7,35.5,30.21,ESE,110,10.0,12.0,88,0.00,,OVC200,0.00,VWS V14.01,2013-01-10 21:20:00,
2013-01-10 15:25:00,38.7,35.5,30.20,ESE,123,4.0,10.0,88,0.00,,OVC200,0.00,VWS V14.01,2013-01-10 21:25:00,
2013-01-10 15:30:00,38.8,35.6,30.21,SE,125,5.0,9.0,88,0.00,,FEW120,0.00,VWS V14.01,2013-01-10 21:30:00,
2013-01-10 15:31:00,38.8,35.6,30.21,SE,124,8.0,11.0,88,0.00,,OVC200,0.00,VWS V14.01,2013-01-10 21:31:00,
2013-01-10 15:35:00,38.8,35.6,30.20,ESE,123,4.0,11.0,88,0.00,,FEW120,0.00,VWS V14.01,2013-01-10 21:35:00,
2013-01-10 15:36:00,38.8,35.6,30.20,ESE,114,8.0,9.0,88,0.00,,OVC200,0.00,VWS V14.01,2013-01-10 21:36:00,
2013-01-10 15:40:00,38.8,35.6,30.20,SE,126,5.0,9.0,88,0.00,,FEW120,0.00,VWS V14.01,2013-01-10 21:40:00,
2013-01-10 15:41:00,38.8,35.6,30.20,SE,130,5.0,9.0,88,0.00,,OVC200,0.00,VWS V14.01,2013-01-10 21:41:00,
2013-01-10 15:45:00,38.8,35.6,30.19,SE,128,6.0,10.0,88,0.00,,FEW120,0.00,VWS V14.01,2013-01-10 21:45:00,
2013-01-10 15:46:00,38.8,35.6,30.20,SE,128,7.0,11.0,88,0.00,,OVC200,0.00,VWS V14.01,2013-01-10 21:46:00,
2013-01-10 15:50:00,38.8,35.6,30.20,SSE,155,5.0,11.0,88,0.00,,FEW120,0.00,VWS V14.01,2013-01-10 21:50:00,
2013-01-10 15:51:00,38.8,35.6,30.20,ESE,120,5.0,11.0,88,0.00,,OVC200,0.00,VWS V14.01,2013-01-10 21:51:00,
2013-01-10 15:55:00,38.8,35.3,30.20,SE,134,5.0,9.0,87,0.00,,FEW120,0.00,VWS V14.01,2013-01-10 21:55:00,
2013-01-10 15:56:00,38.8,35.3,30.19,SE,138,9.0,10.0,87,0.00,,OVC200,0.00,VWS V14.01,2013-01-10 21:56:00,
2013-01-10 16:00:00,38.8,35.3,30.20,SE,126,5.0,12.0,87,0.00,,FEW120,0.00,VWS V14.01,2013-01-10 22:00:00,
2013-01-10 16:02:00,38.8,35.3,30.19,South,182,5.0,12.0,87,0.00,,OVC200,0.00,VWS V14.01,2013-01-10 22:02:00,
2013-01-10 16:05:00,38.8,35.3,30.20,SE,128,2.0,9.0,87,0.00,,,0.00,VWS V14.01,2013-01-10 22:05:00,
2013-01-10 16:07:00,38.8,35.3,30.19,SE,127,9.0,11.0,87,0.00,,OVC200,0.00,VWS V14.01,2013-01-10 22:07:00,
2013-01-10 16:10:00,38.8,35.3,30.19,ESE,118,9.0,11.0,87,0.00,,FEW120,0.00,VWS V14.01,2013-01-10 22:10:00,
2013-01-10 16:12:00,38.8,35.3,30.20,SE,137,3.0,10.0,87,0.00,,OVC200,0.00,VWS V14.01,2013-01-10 22:12:00,
2013-01-10 16:15:00,38.8,35.3,30.19,ESE,113,7.0,9.0,87,0.00,,FEW120,0.00,VWS V14.01,2013-01-10 22:15:00,
2013-01-10 16:17:00,38.8,35.3,30.19,ESE,114,4.0,9.0,87,0.00,,OVC200,0.00,VWS V14.01,2013-01-10 22:17:00,
2013-01-10 16:20:00,38.8,35.3,30.19,East,101,3.0,8.0,87,0.00,,FEW120,0.00,VWS V14.01,2013-01-10 22:20:00,
2013-01-10 16:22:00,38.8,35.3,30.19,SE,133,4.0,9.0,87,0.00,,OVC200,0.00,VWS V14.01,2013-01-10 22:22:00,
2013-01-10 16:25:00,38.8,35.3,30.18,ESE,120,4.0,9.0,87,0.00,,FEW120,0.00,VWS V14.01,2013-01-10 22:25:00,
2013-01-10 16:27:00,38.8,35.3,30.18,ESE,117,3.0,8.0,87,0.00,,OVC200,0.00,VWS V14.01,2013-01-10 22:27:00,
2013-01-10 16:30:00,38.8,35.3,30.18,ESE,119,3.0,8.0,87,0.00,,FEW120,0.00,VWS V14.01,2013-01-10 22:30:00,
2013-01-10 16:32:00,38.8,35.3,30.18,ESE,105,4.0,8.0,87,0.00,,OVC200,0.00,VWS V14.01,2013-01-10 22:32:00,
2013-01-10 16:35:00,38.9,35.4,30.18,ESE,113,2.0,8.0,87,0.00,,FEW120,0.00,VWS V14.01,2013-01-10 22:35:00,
2013-01-10 16:37:00,38.9,35.4,30.18,SE,126,5.0,8.0,87,0.00,,OVC200,0.00,VWS V14.01,2013-01-10 22:37:00,
2013-01-10 16:40:00,39.0,35.5,30.18,ESE,110,5.0,8.0,87,0.00,,FEW120,0.00,VWS V14.01,2013-01-10 22:40:00,
2013-01-10 16:42:00,39.0,35.5,30.18,ESE,106,3.0,9.0,87,0.00,,OVC200,0.00,VWS V14.01,2013-01-10 22:42:00,
2013-01-10 16:45:00,39.0,35.8,30.17,SE,124,6.0,9.0,88,0.00,,FEW120,0.00,VWS V14.01,2013-01-10 22:45:00,
2013-01-10 16:47:00,39.1,35.8,30.17,ESE,116,3.0,8.0,88,0.00,,OVC200,0.00,VWS V14.01,2013-01-10 22:47:00,
2013-01-10 16:50:00,39.1,35.8,30.17,ESE,122,4.0,8.0,88,0.00,,FEW120,0.00,VWS V14.01,2013-01-10 22:50:00,
2013-01-10 16:52:00,39.0,35.8,30.17,SE,127,4.0,9.0,88,0.00,,OVC200,0.00,VWS V14.01,2013-01-10 22:52:00,
2013-01-10 16:55:00,39.1,35.8,30.17,SE,132,4.0,9.0,88,0.00,,FEW120,0.00,VWS V14.01,2013-01-10 22:55:00,
2013-01-10 16:58:00,39.1,35.8,30.17,ESE,110,7.0,7.0,88,0.00,,OVC200,0.00,VWS V14.01,2013-01-10 22:58:00,
2013-01-10 17:00:00,39.0,35.8,30.17,ESE,113,1.0,7.0,88,0.00,,FEW120,0.00,VWS V14.01,2013-01-10 23:00:00,
2013-01-10 17:03:00,39.0,35.8,30.17,ESE,106,1.0,7.0,88,0.00,,OVC200,0.00,VWS V14.01,2013-01-10 23:03:00,
2013-01-10 17:05:00,39.0,35.8,30.17,East,90,3.0,7.0,88,0.00,,FEW120,0.00,VWS V14.01,2013-01-10 23:05:00,
2013-01-10 17:08:00,39.0,35.8,30.17,ESE,103,1.0,8.0,88,0.00,,OVC200,0.00,VWS V14.01,2013-01-10 23:08:00,
2013-01-10 17:10:00,39.0,35.8,30.16,ESE,117,4.0,8.0,88,0.00,,FEW120,0.00,VWS V14.01,2013-01-10 23:10:00,
2013-01-10 17:13:00,39.0,35.8,30.16,ESE,111,3.0,7.0,88,0.00,,OVC200,0.00,VWS V14.01,2013-01-10 23:13:00,
2013-01-10 17:15:00,39.0,35.8,30.16,ESE,123,3.0,8.0,88,0.00,,FEW120,0.00,VWS V14.01,2013-01-10 23:15:00,
2013-01-10 17:18:00,39.1,35.8,30.17,ESE,121,4.0,8.0,88,0.00,,OVC200,0.00,VWS V14.01,2013-01-10 23:18:00,
2013-01-10 17:20:00,39.1,35.8,30.17,ESE,117,4.0,8.0,88,0.00,,FEW120,0.00,VWS V14.01,2013-01-10 23:20:00,
2013-01-10 17:23:00,39.2,36.0,30.16,East,89,6.0,10.0,88,0.00,,OVC200,0.00,VWS V14.01,2013-01-10 23:23:00,
2013-01-10 17:25:00,39.3,36.0,30.16,ESE,115,2.0,10.0,88,0.00,,FEW120,0.00,VWS V14.01,2013-01-10 23:25:00,
2013-01-10 17:28:00,39.3,36.0,30.16,ESE,113,3.0,8.0,88,0.00,,OVC200,0.00,VWS V14.01,2013-01-10 23:28:00,
2013-01-10 17:30:00,39.3,36.0,30.16,ESE,119,3.0,8.0,88,0.00,,FEW120,0.00,VWS V14.01,2013-01-10 23:30:00,
2013-01-10 17:33:00,39.3,36.0,30.15,SE,127,5.0,8.0,88,0.00,,OVC200,0.00,VWS V14.01,2013-01-10 23:33:00,
2013-01-10 17:35:00,39.3,36.0,30.15,East,97,6.0,9.0,88,0.00,,FEW120,0.00,VWS V14.01,2013-01-10 23:35:00,
2013-01-10 17:38:00,39.3,36.0,30.15,ESE,111,4.0,9.0,88,0.00,,OVC200,0.00,VWS V14.01,2013-01-10 23:38:00,
2013-01-10 17:40:00,39.3,36.0,30.15,ESE,117,5.0,8.0,88,0.00,,FEW120,0.00,VWS V14.01,2013-01-10 23:40:00,
2013-01-10 17:44:00,39.3,36.0,30.15,ESE,105,4.0,9.0,88,0.00,,OVC200,0.00,VWS V14.01,2013-01-10 23:44:00,
2013-01-10 17:45:00,39.3,36.0,30.15,ESE,113,3.0,9.0,88,0.00,,FEW120,0.00,VWS V14.01,2013-01-10 23:45:00,
2013-01-10 17:49:00,39.2,36.2,30.15,East,100,5.0,8.0,89,0.01,,OVC200,0.01,VWS V14.01,2013-01-10 23:49:00,
2013-01-10 17:50:00,39.2,36.2,30.14,ESE,119,1.0,8.0,89,0.01,,FEW120,0.01,VWS V14.01,2013-01-10 23:50:00,
2013-01-10 17:54:00,39.2,36.2,30.15,ESE,121,4.0,10.0,89,0.01,,OVC200,0.01,VWS V14.01,2013-01-10 23:54:00,
2013-01-10 17:55:00,39.2,36.2,30.14,ESE,117,4.0,10.0,89,0.01,,FEW120,0.01,VWS V14.01,2013-01-10 23:55:00,
2013-01-10 17:59:00,39.2,36.2,30.14,East,90,3.0,10.0,89,0.01,,OVC200,0.01,VWS V14.01,2013-01-10 23:59:00,
2013-01-10 18:00:00,39.2,36.2,30.14,ESE,109,4.0,10.0,89,0.01,,FEW120,0.01,VWS V14.01,2013-01-11 00:00:00,
2013-01-10 18:04:00,39.1,36.1,30.14,ESE,105,4.0,10.0,89,0.01,,-RA,0.01,VWS V14.01,2013-01-11 00:04:00,
2013-01-10 18:05:00,39.2,36.2,30.14,ESE,107,7.0,10.0,89,0.01,,FEW120,0.01,VWS V14.01,2013-01-11 00:05:00,
2013-01-10 18:09:00,39.1,36.1,30.14,SE,126,8.0,11.0,89,0.01,,-RA,0.01,VWS V14.01,2013-01-11 00:09:00,
2013-01-10 18:10:00,39.2,36.2,30.14,SE,128,7.0,11.0,89,0.01,,FEW120,0.01,VWS V14.01,2013-01-11 00:10:00,
2013-01-10 18:14:00,39.2,36.2,30.13,ESE,115,2.0,11.0,89,0.02,,-RA,0.02,VWS V14.01,2013-01-11 00:14:00,
2013-01-10 18:15:00,39.2,36.2,30.13,ESE,123,4.0,11.0,89,0.02,,FEW120,0.02,VWS V14.01,2013-01-11 00:15:00,
2013-01-10 18:19:00,39.1,36.1,30.13,East,101,5.0,10.0,89,0.02,,-RA,0.02,VWS V14.01,2013-01-11 00:19:00,
2013-01-10 18:20:00,39.1,36.1,30.13,ESE,120,4.0,10.0,89,0.02,,FEW120,0.02,VWS V14.01,2013-01-11 00:20:00,
2013-01-10 18:24:00,39.1,36.1,30.12,ESE,109,5.0,10.0,89,0.02,,-RA,0.02,VWS V14.01,2013-01-11 00:24:00,
2013-01-10 18:25:00,39.1,36.1,30.12,ESE,116,2.0,10.0,89,0.02,,FEW120,0.02,VWS V14.01,2013-01-11 00:25:00,
2013-01-10 18:29:00,39.1,36.1,30.12,ESE,116,3.0,10.0,89,0.02,,-RA,0.02,VWS V14.01,2013-01-11 00:29:00,
2013-01-10 18:30:00,39.1,36.1,30.12,ESE,113,5.0,10.0,89,0.02,,FEW120,0.02,VWS V14.01,2013-01-11 00:30:00,
2013-01-10 18:34:00,39.2,36.2,30.11,ESE,113,11.0,12.0,89,0.02,,-RA,0.02,VWS V14.01,2013-01-11 00:34:00,
2013-01-10 18:35:00,39.2,36.2,30.11,ESE,111,11.0,12.0,89,0.02,,FEW120,0.02,VWS V14.01,2013-01-11 00:35:00,
2013-01-10 18:40:00,39.3,36.0,30.11,ENE,69,11.0,11.0,88,0.02,,-RA,0.02,VWS V14.01,2013-01-11 00:40:00,
2013-01-10 18:45:00,39.4,36.2,30.10,ESE,109,5.0,13.0,88,0.02,,-RA,0.02,VWS V14.01,2013-01-11 00:45:00,
2013-01-10 18:50:00,39.3,36.0,30.10,SE,138,4.0,14.0,88,0.01,,-RA,0.02,VWS V14.01,2013-01-11 00:50:00,
2013-01-10 18:55:00,39.1,35.8,30.09,East,88,11.0,13.0,88,0.01,,-RA,0.02,VWS V14.01,2013-01-11 00:55:00,
2013-01-10 19:00:00,39.0,35.8,30.08,East,79,8.0,14.0,88,0.03,,-RA,0.04,VWS V14.01,2013-01-11 01:00:00,
2013-01-10 19:05:00,39.0,35.5,30.08,ESE,105,8.0,14.0,87,0.04,,-RA,0.05,VWS V14.01,2013-01-11 01:05:00,
2013-01-10 19:10:00,39.0,35.5,30.08,East,82,5.0,15.0,87,0.05,,-RA,0.06,VWS V14.01,2013-01-11 01:10:00,
2013-01-10 19:15:00,39.0,35.5,30.08,ESE,110,5.0,13.0,87,0.04,,-RA,0.06,VWS V14.01,2013-01-11 01:15:00,
2013-01-10 19:20:00,38.9,35.4,30.07,SE,129,7.0,15.0,87,0.04,,-RA,0.06,VWS V14.01,2013-01-11 01:20:00,
2013-01-10 19:25:00,38.9,35.4,30.07,East,96,2.0,14.0,87,0.04,,-RA,0.06,VWS V14.01,2013-01-11 01:25:00,
2013-01-10 19:30:00,39.0,35.2,30.07,ESE,118,3.0,15.0,86,0.04,,-RA,0.06,VWS V14.01,2013-01-11 01:30:00,
2013-01-10 19:35:00,39.1,35.3,30.06,SE,125,2.0,14.0,86,0.04,,-RA,0.06,VWS V14.01,2013-01-11 01:35:00,
2013-01-10 19:40:00,39.1,35.3,30.06,SE,126,7.0,11.0,86,0.04,,,0.06,VWS V14.01,2013-01-11 01:40:00,
2013-01-10 19:41:00,39.1,35.3,30.06,SE,132,8.0,11.0,86,0.04,,-RA,0.06,VWS V14.01,2013-01-11 01:41:00,
2013-01-10 19:45:00,39.1,35.3,30.06,ESE,117,10.0,15.0,86,0.04,,,0.06,VWS V14.01,2013-01-11 01:45:00,
2013-01-10 19:46:00,39.2,35.7,30.06,ESE,111,5.0,16.0,87,0.04,,-RA,0.06,VWS V14.01,2013-01-11 01:46:00,
2013-01-10 19:50:00,39.2,35.4,30.06,East,101,7.0,12.0,86,0.04,,,0.06,VWS V14.01,2013-01-11 01:50:00,
2013-01-10 19:51:00,39.1,35.3,30.05,SE,132,2.0,13.0,86,0.04,,-RA,0.06,VWS V14.01,2013-01-11 01:51:00,
2013-01-10 19:55:00,39.1,35.3,30.05,SE,127,10.0,15.0,86,0.04,,FEW120,0.06,VWS V14.01,2013-01-11 01:55:00,
2013-01-10 19:56:00,39.1,35.3,30.06,East,101,10.0,15.0,86,0.04,,-RA,0.06,VWS V14.01,2013-01-11 01:56:00,
2013-01-10 20:00:00,38.9,35.4,30.06,SSE,157,5.0,13.0,87,0.04,,FEW120,0.06,VWS V14.01,2013-01-11 02:00:00,
2013-01-10 20:01:00,38.9,35.4,30.05,SE,128,7.0,13.0,87,0.02,,OVC021,0.06,VWS V14.01,2013-01-11 02:01:00,
2013-01-10 20:05:00,38.7,35.5,30.05,ESE,121,9.0,13.0,88,0.02,,FEW120,0.06,VWS V14.01,2013-01-11 02:05:00,
2013-01-10 20:06:00,38.6,35.6,30.05,SSE,155,6.0,16.0,89,0.01,,OVC021,0.06,VWS V14.01,2013-01-11 02:06:00,
2013-01-10 20:10:00,38.6,35.7,30.05,ESE,121,13.0,23.0,89,0.01,,FEW120,0.06,VWS V14.01,2013-01-11 02:10:00,
2013-01-10 20:11:00,38.5,35.5,30.05,SE,144,12.0,23.0,89,0.01,,OVC021,0.07,VWS V14.01,2013-01-11 02:11:00,
2013-01-10 20:15:00,38.4,35.5,30.04,SE,125,8.0,20.0,89,0.01,,FEW120,0.07,VWS V14.01,2013-01-11 02:15:00,
2013-01-10 20:16:00,38.3,35.6,30.04,ESE,123,11.0,17.0,90,0.01,,OVC021,0.07,VWS V14.01,2013-01-11 02:16:00,
2013-01-10 20:20:00,38.1,35.4,30.04,SE,132,14.0,23.0,90,0.01,,FEW120,0.07,VWS V14.01,2013-01-11 02:20:00,
2013-01-10 20:21:00,38.0,35.3,30.03,SE,125,13.0,23.0,90,0.01,,OVC021,0.07,VWS V14.01,2013-01-11 02:21:00,
2013-01-10 20:25:00,37.9,35.5,30.03,ESE,123,11.0,22.0,91,0.01,,FEW120,0.07,VWS V14.01,2013-01-11 02:25:00,
2013-01-10 20:27:00,37.9,35.5,30.03,SE,130,9.0,22.0,91,0.01,,OVC021,0.07,VWS V14.01,2013-01-11 02:27:00,
2013-01-10 20:30:00,37.9,35.5,30.03,SE,140,11.0,17.0,91,0.02,,FEW120,0.08,VWS V14.01,2013-01-11 02:30:00,
2013-01-10 20:32:00,37.8,35.7,30.02,ESE,116,9.0,17.0,92,0.02,,,0.08,VWS V14.01,2013-01-11 02:32:00,
2013-01-10 20:35:00,37.8,35.7,30.03,ESE,108,9.0,12.0,92,0.02,,FEW120,0.08,VWS V14.01,2013-01-11 02:35:00,
2013-01-10 20:37:00,37.7,35.6,30.02,SSE,148,8.0,15.0,92,0.02,,,0.08,VWS V14.01,2013-01-11 02:37:00,
2013-01-10 20:40:00,37.8,35.7,30.02,SE,138,10.0,15.0,92,0.02,,FEW120,0.08,VWS V14.01,2013-01-11 02:40:00,
2013-01-10 20:42:00,37.8,35.7,30.02,ESE,115,8.0,15.0,92,0.02,,,0.08,VWS V14.01,2013-01-11 02:42:00,
2013-01-10 20:45:00,37.8,36.0,30.02,SE,143,11.0,15.0,93,0.02,,FEW120,0.08,VWS V14.01,2013-01-11 02:45:00,
2013-01-10 20:47:00,37.9,36.1,30.02,SE,125,8.0,13.0,93,0.02,,,0.08,VWS V14.01,2013-01-11 02:47:00,
2013-01-10 20:50:00,37.9,36.1,30.02,SE,145,10.0,16.0,93,0.02,,FEW120,0.08,VWS V14.01,2013-01-11 02:50:00,
2013-01-10 20:52:00,37.9,36.1,30.01,SE,125,5.0,19.0,93,0.02,,,0.08,VWS V14.01,2013-01-11 02:52:00,
2013-01-10 20:55:00,37.8,36.0,30.01,SE,124,10.0,19.0,93,0.02,,FEW120,0.08,VWS V14.01,2013-01-11 02:55:00,
2013-01-10 20:57:00,37.8,36.0,30.01,SE,137,11.0,17.0,93,0.02,,,0.08,VWS V14.01,2013-01-11 02:57:00,
2013-01-10 21:00:00,37.8,36.0,30.01,ESE,113,13.0,17.0,93,0.02,,FEW120,0.08,VWS V14.01,2013-01-11 03:00:00,
2013-01-10 21:02:00,37.7,35.9,30.00,ESE,114,16.0,17.0,93,0.02,,-RA,0.08,VWS V14.01,2013-01-11 03:02:00,
2013-01-10 21:05:00,37.7,35.9,30.00,SE,137,9.0,17.0,93,0.03,,FEW120,0.09,VWS V14.01,2013-01-11 03:05:00,
2013-01-10 21:07:00,37.8,36.2,30.00,SE,139,12.0,18.0,94,0.03,,-RA,0.09,VWS V14.01,2013-01-11 03:07:00,
2013-01-10 21:10:00,37.8,36.2,30.00,SE,126,5.0,20.0,94,0.03,,FEW120,0.09,VWS V14.01,2013-01-11 03:10:00,
2013-01-10 21:12:00,37.7,36.1,30.00,ESE,113,2.0,17.0,94,0.03,,-RA,0.09,VWS V14.01,2013-01-11 03:12:00,
2013-01-10 21:15:00,37.7,36.1,30.00,SE,129,5.0,11.0,94,0.03,,FEW120,0.09,VWS V14.01,2013-01-11 03:15:00,
2013-01-10 21:17:00,37.7,36.1,30.00,SE,127,8.0,14.0,94,0.02,,-RA,0.09,VWS V14.01,2013-01-11 03:17:00,
2013-01-10 21:20:00,37.8,36.2,30.00,SE,142,5.0,14.0,94,0.02,,FEW120,0.09,VWS V14.01,2013-01-11 03:20:00,
2013-01-10 21:22:00,37.7,36.1,29.99,ESE,117,9.0,11.0,94,0.03,,-RA,0.10,VWS V14.01,2013-01-11 03:22:00,
2013-01-10 21:25:00,37.7,36.1,29.99,East,96,8.0,11.0,94,0.03,,FEW120,0.10,VWS V14.01,2013-01-11 03:25:00,
2013-01-10 21:28:00,37.7,36.1,29.99,SE,124,4.0,11.0,94,0.03,,-RA,0.10,VWS V14.01,2013-01-11 03:28:00,
2013-01-10 21:30:00,37.7,36.1,29.99,ESE,123,7.0,12.0,94,0.03,,FEW120,0.10,VWS V14.01,2013-01-11 03:30:00,
2013-01-10 21:33:00,37.7,36.4,29.99,SW,216,3.0,16.0,95,0.02,,-RA,0.10,VWS V14.01,2013-01-11 03:33:00,
2013-01-10 21:35:00,37.7,36.4,29.99,ESE,103,7.0,17.0,95,0.03,,FEW120,0.11,VWS V14.01,2013-01-11 03:35:00,
2013-01-10 21:38:00,37.7,36.4,29.98,SSE,161,4.0,15.0,95,0.03,,-RA,0.11,VWS V14.01,2013-01-11 03:38:00,
2013-01-10 21:40:00,37.6,36.3,29.98,SE,126,12.0,15.0,95,0.03,,FEW120,0.11,VWS V14.01,2013-01-11 03:40:00,
2013-01-10 21:43:00,37.5,35.9,29.98,SE,142,6.0,15.0,94,0.03,,-RA,0.11,VWS V14.01,2013-01-11 03:43:00,
2013-01-10 21:45:00,37.5,35.9,29.98,SE,142,10.0,14.0,94,0.04,,FEW120,0.12,VWS V14.01,2013-01-11 03:45:00,
2013-01-10 21:48:00,37.5,35.9,29.97,SE,143,6.0,14.0,94,0.04,,-RA,0.12,VWS V14.01,2013-01-11 03:48:00,
2013-01-10 21:50:00,37.5,36.2,29.97,SE,132,13.0,13.0,95,0.04,,FEW120,0.12,VWS V14.01,2013-01-11 03:50:00,
2013-01-10 21:53:00,37.5,36.2,29.96,SE,130,7.0,14.0,95,0.04,,-RA,0.12,VWS V14.01,2013-01-11 03:53:00,
2013-01-10 21:55:00,37.5,36.2,29.96,SE,132,10.0,15.0,95,0.04,,FEW120,0.12,VWS V14.01,2013-01-11 03:55:00,
2013-01-10 21:58:00,37.6,36.3,29.96,ESE,122,4.0,12.0,95,0.04,,-RA,0.12,VWS V14.01,2013-01-11 03:58:00,
2013-01-10 22:00:00,37.6,36.3,29.96,SE,142,4.0,12.0,95,0.04,,FEW120,0.12,VWS V14.01,2013-01-11 04:00:00,
2013-01-10 22:03:00,37.7,36.4,29.95,ESE,121,7.0,14.0,95,0.05,,-RA,0.13,VWS V14.01,2013-01-11 04:03:00,
2013-01-10 22:05:00,37.7,36.4,29.95,SE,125,4.0,14.0,95,0.05,,FEW120,0.13,VWS V14.01,2013-01-11 04:05:00,
2013-01-10 22:08:00,37.7,36.4,29.95,SE,135,2.0,15.0,95,0.04,,-RA,0.13,VWS V14.01,2013-01-11 04:08:00,
2013-01-10 22:10:00,37.7,36.4,29.95,East,88,6.0,15.0,95,0.04,,FEW120,0.13,VWS V14.01,2013-01-11 04:10:00,
2013-01-10 22:13:00,37.7,36.4,29.95,SE,138,8.0,14.0,95,0.04,,-RA,0.13,VWS V14.01,2013-01-11 04:13:00,
2013-01-10 22:15:00,37.7,36.4,29.95,ESE,121,5.0,14.0,95,0.04,,,0.13,VWS V14.01,2013-01-11 04:15:00,
2013-01-10 22:18:00,37.7,36.4,29.95,SSE,154,6.0,13.0,95,0.05,,-RA,0.14,VWS V14.01,2013-01-11 04:18:00,
2013-01-10 22:20:00,37.7,36.4,29.95,SE,132,7.0,13.0,95,0.05,,FEW120,0.14,VWS V14.01,2013-01-11 04:20:00,
2013-01-10 22:23:00,37.7,36.4,29.95,SE,134,6.0,11.0,95,0.05,,-RA,0.14,VWS V14.01,2013-01-11 04:23:00,
2013-01-10 22:25:00,37.7,36.4,29.94,SSE,154,8.0,13.0,95,0.05,,FEW120,0.14,VWS V14.01,2013-01-11 04:25:00,
2013-01-10 22:28:00,37.7,36.4,29.94,ESE,113,5.0,11.0,95,0.05,,-RA,0.15,VWS V14.01,2013-01-11 04:28:00,
2013-01-10 22:30:00,37.7,36.4,29.94,SE,144,2.0,11.0,95,0.05,,FEW120,0.15,VWS V14.01,2013-01-11 04:30:00,
2013-01-10 22:33:00,37.7,36.4,29.93,SE,136,4.0,13.0,95,0.06,,RA,0.16,VWS V14.01,2013-01-11 04:33:00,
2013-01-10 22:35:00,37.8,36.5,29.93,SE,128,7.0,13.0,95,0.06,,FEW120,0.16,VWS V14.01,2013-01-11 04:35:00,
2013-01-10 22:39:00,37.8,36.5,29.93,SE,131,9.0,15.0,95,0.05,,RA,0.16,VWS V14.01,2013-01-11 04:39:00,
2013-01-10 22:40:00,37.8,36.5,29.93,South,169,1.0,15.0,95,0.05,,FEW120,0.16,VWS V14.01,2013-01-11 04:40:00,
2013-01-10 22:44:00,37.9,36.6,29.93,SE,133,3.0,12.0,95,0.06,,RA,0.17,VWS V14.01,2013-01-11 04:44:00,
2013-01-10 22:45:00,37.8,36.5,29.93,ESE,102,3.0,12.0,95,0.06,,FEW120,0.17,VWS V14.01,2013-01-11 04:45:00,
2013-01-10 22:49:00,37.9,36.6,29.94,SSE,161,4.0,13.0,95,0.06,,RA,0.18,VWS V14.01,2013-01-11 04:49:00,
2013-01-10 22:50:00,37.9,36.6,29.94,SSE,158,4.0,13.0,95,0.07,,FEW120,0.19,VWS V14.01,2013-01-11 04:50:00,
2013-01-10 22:54:00,38.0,36.7,29.94,SE,138,4.0,9.0,95,0.10,,RA,0.22,VWS V14.01,2013-01-11 04:54:00,
2013-01-10 22:55:00,38.0,36.7,29.94,SE,138,3.0,9.0,95,0.10,,FEW120,0.22,VWS V14.01,2013-01-11 04:55:00,
2013-01-10 22:59:00,37.9,36.6,29.93,SE,136,3.0,10.0,95,0.12,,RA,0.24,VWS V14.01,2013-01-11 04:59:00,
2013-01-10 23:00:00,37.9,36.6,29.92,SE,132,7.0,10.0,95,0.13,,RA,0.25,VWS V14.01,2013-01-11 05:00:00,
2013-01-10 23:03:00,37.9,36.6,29.92,SE,140,6.0,10.0,95,0.14,, +RA,0.26,VWS V14.01,2013-01-11 05:03:00,
2013-01-10 23:04:00,37.9,36.6,29.92,SSE,168,5.0,10.0,95,0.14,, +RA,0.26,VWS V14.01,2013-01-11 05:04:00,
2013-01-10 23:05:00,37.8,36.5,29.92,ESE,109,5.0,10.0,95,0.14,,FEW120,0.26,VWS V14.01,2013-01-11 05:05:00,
2013-01-10 23:08:00,37.8,36.5,29.92,SSE,160,3.0,7.0,95,0.15,, +RA,0.28,VWS V14.01,2013-01-11 05:08:00,
2013-01-10 23:10:00,37.8,36.5,29.92,South,170,5.0,7.0,95,0.16,,FEW120,0.29,VWS V14.01,2013-01-11 05:10:00,
2013-01-10 23:13:00,37.8,36.5,29.92,SE,127,3.0,10.0,95,0.18,, +RA,0.31,VWS V14.01,2013-01-11 05:13:00,
2013-01-10 23:15:00,37.8,36.5,29.92,SE,127,5.0,10.0,95,0.19,,FEW120,0.32,VWS V14.01,2013-01-11 05:15:00,
2013-01-10 23:18:00,37.8,36.5,29.91,SE,146,1.0,13.0,95,0.22,, +RA,0.35,VWS V14.01,2013-01-11 05:18:00,
2013-01-10 23:20:00,37.8,36.5,29.91,SE,144,5.0,13.0,95,0.23,,FEW120,0.36,VWS V14.01,2013-01-11 05:20:00,
2013-01-10 23:24:00,37.8,36.5,29.90,SE,129,2.0,8.0,95,0.24,, +RA,0.38,VWS V14.01,2013-01-11 05:24:00,
2013-01-10 23:25:00,37.8,36.8,29.90,SE,128,5.0,8.0,96,0.24,,,0.38,VWS V14.01,2013-01-11 05:25:00,
2013-01-10 23:29:00,37.8,36.8,29.90,SE,132,2.0,10.0,96,0.25,, +RA,0.39,VWS V14.01,2013-01-11 05:29:00,
2013-01-10 23:30:00,37.8,36.8,29.89,SE,132,5.0,8.0,96,0.26,,FEW120,0.40,VWS V14.01,2013-01-11 05:30:00,
2013-01-10 23:34:00,37.9,36.9,29.89,SE,132,5.0,8.0,96,0.25,, +RA,0.40,VWS V14.01,2013-01-11 05:34:00,
2013-01-10 23:35:00,37.9,36.9,29.89,ESE,119,5.0,8.0,96,0.26,,FEW120,0.41,VWS V14.01,2013-01-11 05:35:00,
2013-01-10 23:39:00,37.9,36.9,29.89,SE,124,4.0,8.0,96,0.26,, +RA,0.42,VWS V14.01,2013-01-11 05:39:00,
2013-01-10 23:40:00,37.9,36.9,29.89,ESE,119,3.0,8.0,96,0.26,,FEW120,0.42,VWS V14.01,2013-01-11 05:40:00,
2013-01-10 23:44:00,37.9,36.9,29.88,SE,133,8.0,12.0,96,0.27,, +RA,0.43,VWS V14.01,2013-01-11 05:44:00,
2013-01-10 23:45:00,38.0,37.0,29.88,ESE,119,5.0,12.0,96,0.27,,FEW120,0.43,VWS V14.01,2013-01-11 05:45:00,
2013-01-10 23:49:00,38.0,37.0,29.88,ESE,119,3.0,9.0,96,0.27,, +RA,0.44,VWS V14.01,2013-01-11 05:49:00,
2013-01-10 23:50:00,38.0,37.0,29.88,SE,126,5.0,9.0,96,0.27,,FEW120,0.44,VWS V14.01,2013-01-11 05:50:00,
2013-01-10 23:54:00,38.1,37.1,29.88,SE,129,6.0,9.0,96,0.25,, +RA,0.44,VWS V14.01,2013-01-11 05:54:00,
2013-01-10 23:55:00,38.1,37.1,29.88,SE,127,8.0,9.0,96,0.25,,FEW120,0.44,VWS V14.01,2013-01-11 05:55:00,
2013-01-10 23:59:00,38.1,37.1,29.87,SE,140,5.0,9.0,96,0.23,, +RA,0.45,VWS V14.01,2013-01-11 05:59:00,